Dades meteomassalio
Diari Summary for Juliol 17, 2017 Units:  English    Metric   Both
« Previous Day
Next Day »
Diari Semanal Mensual Anual Personalitzat
  Maxima: Minima: Mijana:
Temperatura: TemperatureC °F 18.5 °F 26.1 °F
Rosada: DewpointC °F 14.6 °F 17.2 °F
Humitat: Humidity % 39 % 59 %
Velocitat del vent: WindSpeedKMH mph 0.0 mph 12.3 mph
Racha vent: WindSpeedGustKMH mph - -
Vent:- - SE
Pressio: PressurehPa in 1012.4 in -
Pluja: 1.3 in    
Historical Graphs
 
 
Tabular Data for Juliol 17, 2017
Time Temperature Dew Point Pressure Wind Wind Speed Wind Gust Humidity Rainfall Rate (Hourly) solar Conditions
TemperatureC °F DewpointC °F PressurehPa in Calm     Humidity % HourlyPrecipMM in SolarRadiationWatts/m^2 W/m2 Conditions
00:04 25.3 °F 17.7 °F 1016.5 in Calm     63 % 0.0 in 0.0 W/m2 CLR
00:09 25.1 °F 17.8 °F 1016.5 in East 3.7 mph 3.7 mph 64 % 0.0 in 0.0 W/m2 CLR
00:14 24.9 °F 18.1 °F 1016.5 in Calm     66 % 0.0 in 0.0 W/m2 CLR
00:19 24.7 °F 17.9 °F 1016.5 in ESE 3.7 mph 3.7 mph 66 % 0.0 in 0.0 W/m2 CLR
00:24 24.7 °F 18.1 °F 1016.5 in ESE 3.7 mph 3.7 mph 67 % 0.0 in 0.0 W/m2 CLR
00:29 24.6 °F 18.3 °F 1016.5 in Calm     68 % 0.0 in 0.0 W/m2 CLR
00:34 24.4 °F 18.1 °F 1016.5 in Calm     68 % 0.0 in 0.0 W/m2 CLR
00:39 24.3 °F 18.2 °F 1016.5 in Calm     69 % 0.0 in 0.0 W/m2 CLR
00:44 24.1 °F 18.3 °F 1016.5 in Calm     70 % 0.0 in 0.0 W/m2 CLR
00:49 24.0 °F 18.2 °F 1016.5 in Calm     70 % 0.0 in 0.0 W/m2 CLR
00:54 23.9 °F 18.4 °F 1016.5 in Calm     71 % 0.0 in 0.0 W/m2 CLR
00:59 23.8 °F 18.3 °F 1016.5 in Calm     71 % 0.0 in 0.0 W/m2 CLR
01:04 23.8 °F 18.2 °F 1016.5 in Calm     71 % 0.0 in 0.0 W/m2 CLR
01:09 23.7 °F 18.4 °F 1016.5 in Calm     72 % 0.0 in 0.0 W/m2 CLR
01:14 23.7 °F 18.3 °F 1016.5 in Calm     72 % 0.0 in 0.0 W/m2 CLR
01:19 23.6 °F 18.3 °F 1016.5 in Calm     72 % 0.0 in 0.0 W/m2 CLR
01:24 23.6 °F 18.2 °F 1016.5 in ESE 5.6 mph 5.6 mph 72 % 0.0 in 0.0 W/m2 CLR
01:29 23.6 °F 18.2 °F 1016.5 in Calm     72 % 0.0 in 0.0 W/m2 CLR
01:34 23.5 °F 18.4 °F 1016.5 in Calm     73 % 0.0 in 0.0 W/m2 CLR
01:39 23.4 °F 18.3 °F 1016.5 in ESE 5.6 mph 5.6 mph 73 % 0.0 in 0.0 W/m2 CLR
01:44 23.4 °F 18.3 °F 1016.5 in ESE 1.9 mph 1.9 mph 73 % 0.0 in 0.0 W/m2 CLR
01:49 23.3 °F 18.2 °F 1016.5 in ESE 5.6 mph 5.6 mph 73 % 0.0 in 0.0 W/m2 CLR
01:54 23.3 °F 18.2 °F 1016.5 in Calm     73 % 0.0 in 0.0 W/m2 CLR
01:59 23.3 °F 18.2 °F 1016.5 in Calm     73 % 0.0 in 0.0 W/m2 CLR
02:04 23.2 °F 18.1 °F 1016.5 in Calm     73 % 0.0 in 0.0 W/m2 CLR
02:09 23.2 °F 18.3 °F 1016.5 in Calm     74 % 0.0 in 0.0 W/m2 CLR
02:14 23.2 °F 18.3 °F 1016.5 in Calm     74 % 0.0 in 0.0 W/m2 CLR
02:17 23.1 °F 18.2 °F 1016.5 in Calm     74 % 0.0 in 0.0 W/m2 CLR
02:22 23.1 °F 18.2 °F 1016.5 in Calm     74 % 0.0 in 0.0 W/m2 CLR
02:27 23.1 °F 18.2 °F 1016.5 in Calm     74 % 0.0 in 0.0 W/m2 CLR
02:32 23.1 °F 18.2 °F 1016.5 in Calm     74 % 0.0 in 0.0 W/m2 CLR
02:37 23.1 °F 18.2 °F 1016.5 in Calm     74 % 0.0 in 0.0 W/m2 CLR
02:42 23.1 °F 18.2 °F 1016.5 in Calm     74 % 0.0 in 0.0 W/m2 CLR
02:47 23.0 °F 18.1 °F 1016.1 in Calm     74 % 0.0 in 0.0 W/m2 CLR
02:52 23.0 °F 18.1 °F 1016.1 in Calm     74 % 0.0 in 0.0 W/m2 CLR
02:57 22.9 °F 18.1 °F 1016.1 in Calm     74 % 0.0 in 0.0 W/m2 CLR
03:02 22.9 °F 18.2 °F 1016.1 in Calm     75 % 0.0 in 0.0 W/m2 CLR
03:07 22.8 °F 18.2 °F 1016.1 in Calm     75 % 0.0 in 0.0 W/m2 CLR
03:12 22.8 °F 18.1 °F 1016.1 in Calm     75 % 0.0 in 0.0 W/m2 CLR
03:17 22.7 °F 18.1 °F 1016.1 in Calm     75 % 0.0 in 0.0 W/m2 CLR
03:22 22.6 °F 17.9 °F 1016.1 in Calm     75 % 0.0 in 0.0 W/m2 CLR
03:27 22.6 °F 18.1 °F 1016.1 in Calm     76 % 0.0 in 0.0 W/m2 CLR
03:28 22.6 °F 18.1 °F 1016.1 in Calm     76 % 0.0 in 0.0 W/m2 CLR
03:33 22.6 °F 18.1 °F 1016.1 in Calm     76 % 0.0 in 0.0 W/m2 CLR
03:38 22.6 °F 17.9 °F 1016.1 in Calm     75 % 0.0 in 0.0 W/m2 CLR
03:43 22.6 °F 17.9 °F 1016.1 in Calm     75 % 0.0 in 0.0 W/m2 CLR
03:48 22.5 °F 17.8 °F 1016.1 in Calm     75 % 0.0 in 0.0 W/m2 CLR
03:53 22.4 °F 17.5 °F 1016.1 in Calm     74 % 0.0 in 0.0 W/m2 CLR
03:58 22.2 °F 17.4 °F 1016.1 in Calm     74 % 0.0 in 0.0 W/m2 CLR
04:03 22.1 °F 17.4 °F 1016.1 in Calm     75 % 0.0 in 0.0 W/m2 CLR
04:08 21.9 °F 17.1 °F 1016.1 in Calm     74 % 0.0 in 0.0 W/m2 CLR
04:13 21.7 °F 16.9 °F 1016.1 in Calm     74 % 0.0 in 0.0 W/m2 CLR
04:18 21.6 °F 16.9 °F 1016.1 in Calm     75 % 0.0 in 0.0 W/m2 CLR
04:23 21.3 °F 16.9 °F 1016.1 in Calm     76 % 0.0 in 0.0 W/m2 CLR
04:28 21.2 °F 16.8 °F 1016.1 in Calm     76 % 0.0 in 0.0 W/m2 CLR
04:33 21.1 °F 16.9 °F 1016.1 in Calm     77 % 0.0 in 0.0 W/m2 CLR
04:38 20.9 °F 16.8 °F 1016.1 in Calm     77 % 0.0 in 0.0 W/m2 CLR
04:43 20.9 °F 16.7 °F 1016.1 in Calm     77 % 0.0 in 0.0 W/m2 CLR
04:48 20.7 °F 16.7 °F 1016.1 in Calm     78 % 0.0 in 0.0 W/m2 CLR
04:53 20.6 °F 16.8 °F 1016.1 in Calm     79 % 0.0 in 0.0 W/m2 CLR
04:58 20.4 °F 16.7 °F 1016.1 in Calm     79 % 0.0 in 0.0 W/m2 CLR
05:03 20.3 °F 16.6 °F 1016.1 in Calm     79 % 0.0 in 0.0 W/m2 CLR
05:08 20.2 °F 16.7 °F 1016.1 in Calm     80 % 0.0 in 0.0 W/m2 CLR
05:13 20.2 °F 16.6 °F 1016.1 in Calm     80 % 0.0 in 0.0 W/m2 CLR
05:18 20.1 °F 16.6 °F 1016.1 in Calm     80 % 0.0 in 0.0 W/m2 CLR
05:23 19.9 °F 16.4 °F 1016.1 in Calm     80 % 0.0 in 0.0 W/m2 CLR
05:28 19.9 °F 16.3 °F 1016.1 in Calm     80 % 0.0 in 0.0 W/m2 CLR
05:33 19.8 °F 16.4 °F 1016.1 in Calm     81 % 0.0 in 0.0 W/m2 CLR
05:38 19.7 °F 16.4 °F 1016.1 in Calm     81 % 0.0 in 0.0 W/m2 CLR
05:43 19.6 °F 16.3 °F 1016.1 in Calm     81 % 0.0 in 0.0 W/m2 CLR
05:48 19.5 °F 16.2 °F 1016.1 in Calm     81 % 0.0 in 0.0 W/m2 CLR
05:53 19.4 °F 16.1 °F 1016.1 in Calm     81 % 0.0 in 0.0 W/m2 CLR
05:59 19.3 °F 16.0 °F 1016.1 in Calm     81 % 0.0 in 0.0 W/m2 CLR
06:04 19.2 °F 15.9 °F 1016.1 in Calm     81 % 0.0 in 0.0 W/m2 CLR
06:06 19.2 °F 16.1 °F 1016.1 in Calm     82 % 0.0 in 0.0 W/m2 CLR
06:11 19.2 °F 16.0 °F 1016.1 in Calm     82 % 0.0 in 0.0 W/m2 CLR
06:16 19.1 °F 15.9 °F 1016.1 in Calm     82 % 0.0 in 0.0 W/m2 CLR
06:21 19.1 °F 15.9 °F 1016.1 in Calm     82 % 0.0 in 0.0 W/m2 CLR
06:26 19.0 °F 15.8 °F 1016.1 in Calm     82 % 0.0 in 0.0 W/m2 CLR
06:31 18.9 °F 15.7 °F 1016.5 in Calm     82 % 0.0 in 0.0 W/m2 OVC
06:36 18.9 °F 15.7 °F 1016.5 in Calm     82 % 0.0 in 0.0 W/m2 OVC
06:41 18.8 °F 15.7 °F 1016.5 in Calm     82 % 0.0 in 0.0 W/m2 OVC
06:46 18.7 °F 15.6 °F 1016.5 in Calm     82 % 0.0 in 7.0 W/m2 BKN
06:51 18.7 °F 15.8 °F 1016.5 in Calm     83 % 0.0 in 11.0 W/m2 BKN
06:56 18.6 °F 15.7 °F 1016.5 in Calm     83 % 0.0 in 12.0 W/m2 BKN
07:01 18.6 °F 15.7 °F 1016.5 in Calm     83 % 0.0 in 16.0 W/m2 BKN
07:06 18.5 °F 15.6 °F 1016.8 in Calm     83 % 0.0 in 21.0 W/m2 BKN
07:11 18.5 °F 15.6 °F 1016.8 in Calm     83 % 0.0 in 26.0 W/m2 BKN
07:16 18.5 °F 15.4 °F 1016.8 in Calm     82 % 0.0 in 32.0 W/m2 BKN
07:21 18.6 °F 15.5 °F 1016.8 in Calm     82 % 0.0 in 37.0 W/m2 BKN
07:26 18.7 °F 15.6 °F 1016.8 in Calm     82 % 0.0 in 47.0 W/m2 SCT
07:31 18.8 °F 15.7 °F 1016.8 in Calm     82 % 0.0 in 58.0 W/m2 SCT
07:36 19.0 °F 15.7 °F 1016.8 in Calm     81 % 0.0 in 69.0 W/m2 FEW
07:41 19.1 °F 15.6 °F 1016.8 in Calm     80 % 0.0 in 79.0 W/m2 FEW
07:46 19.3 °F 15.7 °F 1016.8 in Calm     80 % 0.0 in 90.0 W/m2 FEW
07:52 19.4 °F 15.9 °F 1016.8 in Calm     80 % 0.0 in 100.0 W/m2 CLR
07:57 19.7 °F 16.0 °F 1016.8 in Calm     79 % 0.0 in 118.0 W/m2 CLR
08:02 20.0 °F 16.1 °F 1016.8 in Calm     78 % 0.0 in 130.0 W/m2 CLR
08:07 20.3 °F 16.2 °F 1016.8 in Calm     77 % 0.0 in 148.0 W/m2 CLR
08:12 20.6 °F 16.2 °F 1016.8 in Calm     76 % 0.0 in 165.0 W/m2 CLR
08:17 21.0 °F 16.4 °F 1016.8 in Calm     75 % 0.0 in 181.0 W/m2 CLR
08:22 21.2 °F 16.4 °F 1016.8 in Calm     74 % 0.0 in 193.0 W/m2 CLR
08:27 21.4 °F 16.6 °F 1016.8 in Calm     74 % 0.0 in 207.0 W/m2 CLR
08:32 21.8 °F 16.7 °F 1016.8 in Calm     73 % 0.0 in 223.0 W/m2 CLR
08:37 22.2 °F 17.1 °F 1016.8 in Calm     73 % 0.0 in 207.0 W/m2 CLR
08:42 22.5 °F 17.2 °F 1016.8 in Calm     72 % 0.0 in 248.0 W/m2 CLR
08:47 23.0 °F 17.2 °F 1016.8 in Calm     70 % 0.0 in 257.0 W/m2 CLR
08:52 23.4 °F 17.4 °F 1016.8 in Calm     69 % 0.0 in 260.0 W/m2 CLR
08:57 23.9 °F 17.4 °F 1016.8 in Calm     67 % 0.0 in 294.0 W/m2 CLR
09:02 24.3 °F 17.5 °F 1016.8 in Calm     66 % 0.0 in 308.0 W/m2 CLR
09:07 24.7 °F 17.2 °F 1016.8 in Calm     63 % 0.0 in 288.0 W/m2 CLR
09:12 24.9 °F 17.3 °F 1017.2 in Calm     63 % 0.0 in 338.0 W/m2 CLR
09:17 25.2 °F 17.4 °F 1017.2 in Calm     62 % 0.0 in 352.0 W/m2 CLR
09:22 25.6 °F 17.5 °F 1016.8 in Calm     61 % 0.0 in 373.0 W/m2 CLR
09:27 25.9 °F 17.6 °F 1016.8 in Calm     60 % 0.0 in 388.0 W/m2 CLR
09:32 26.1 °F 17.7 °F 1016.8 in NE 3.7 mph 3.7 mph 60 % 0.0 in 362.0 W/m2 CLR
09:37 26.3 °F 17.9 °F 1016.8 in Calm     60 % 0.0 in 422.0 W/m2 CLR
09:42 26.6 °F 17.9 °F 1016.8 in NE 1.9 mph   59 % 0.0 in 360.0 W/m2 CLR
09:47 26.8 °F 17.6 °F 1016.8 in ENE 3.7 mph 3.7 mph 57 % 0.0 in 452.0 W/m2 CLR
09:52 27.1 °F 17.6 °F 1016.8 in NE 3.2 mph   56 % 0.0 in 462.0 W/m2 CLR
09:57 27.4 °F 17.6 °F 1016.8 in Calm     55 % 0.0 in 480.0 W/m2 CLR
10:02 27.8 °F 17.7 °F 1016.8 in Calm     54 % 0.0 in 496.0 W/m2 CLR
10:07 28.2 °F 17.4 °F 1016.8 in Calm     52 % 0.0 in 376.0 W/m2 CLR
10:12 28.3 °F 17.2 °F 1016.5 in Calm     51 % 0.0 in 504.0 W/m2 CLR
10:17 28.6 °F 17.2 °F 1016.5 in NE 7.4 mph 7.4 mph 50 % 0.0 in 543.0 W/m2 CLR
10:22 28.8 °F 16.0 °F 1016.5 in SE 11.3 mph 11.3 mph 46 % 0.0 in 557.0 W/m2 CLR
10:27 28.8 °F 16.0 °F 1016.5 in ESE 11.1 mph 11.1 mph 46 % 0.0 in 570.0 W/m2 CLR
10:32 28.8 °F 16.4 °F 1016.5 in East 13.0 mph 13.0 mph 47 % 0.0 in 582.0 W/m2 CLR
10:37 28.7 °F 15.6 °F 1016.5 in ESE 11.1 mph 11.1 mph 45 % 0.0 in 591.0 W/m2 CLR
10:42 28.9 °F 16.5 °F 1016.5 in East 16.7 mph 16.7 mph 47 % 0.0 in 612.0 W/m2 CLR
10:47 29.1 °F 16.3 °F 1016.5 in ESE 13.0 mph 13.0 mph 46 % 0.0 in 626.0 W/m2 CLR
10:52 29.2 °F 16.4 °F 1016.5 in East 14.8 mph 14.8 mph 46 % 0.0 in 605.0 W/m2 CLR
10:57 29.2 °F 16.4 °F 1016.5 in East 14.8 mph 14.8 mph 46 % 0.0 in 645.0 W/m2 CLR
11:02 29.5 °F 16.3 °F 1016.1 in ESE 11.1 mph 11.1 mph 45 % 0.0 in 650.0 W/m2 CLR
11:07 29.5 °F 16.3 °F 1016.1 in ESE 16.1 mph 16.1 mph 45 % 0.0 in 654.0 W/m2 CLR
11:12 29.7 °F 16.9 °F 1016.1 in ESE 16.7 mph 16.7 mph 46 % 0.0 in 675.0 W/m2 CLR
11:17 29.6 °F 16.8 °F 1016.1 in East 18.5 mph 18.5 mph 46 % 0.0 in 687.0 W/m2 CLR
11:22 29.6 °F 17.1 °F 1016.1 in ESE 18.5 mph 18.5 mph 47 % 0.0 in 696.0 W/m2 CLR
11:27 29.8 °F 16.9 °F 1015.8 in ENE 13.0 mph 13.0 mph 46 % 0.0 in 707.0 W/m2 CLR
11:32 30.0 °F 17.1 °F 1015.8 in East 13.0 mph 13.0 mph 46 % 0.0 in 719.0 W/m2 CLR
11:37 30.2 °F 16.9 °F 1015.8 in ENE 18.5 mph 18.5 mph 45 % 0.0 in 733.0 W/m2 CLR
11:42 30.3 °F 16.7 °F 1015.5 in ESE 16.7 mph 16.7 mph 44 % 0.0 in 742.0 W/m2 CLR
11:47 30.5 °F 17.2 °F 1015.5 in ENE 22.5 mph 22.5 mph 45 % 0.0 in 751.0 W/m2 CLR
11:52 30.7 °F 16.7 °F 1015.5 in East 25.9 mph 25.9 mph 43 % 0.0 in 765.0 W/m2 CLR
11:57 31.1 °F 15.9 °F 1015.5 in ESE 20.4 mph 20.4 mph 40 % 0.0 in 777.0 W/m2 CLR
11:58 31.1 °F 16.3 °F 1015.5 in ESE 20.4 mph 20.4 mph 41 % 0.0 in 777.0 W/m2 CLR
12:03 31.4 °F 16.2 °F 1015.5 in East 25.9 mph 25.9 mph 40 % 0.0 in 779.0 W/m2 CLR
12:08 31.4 °F 16.2 °F 1015.5 in ESE 31.5 mph 31.5 mph 40 % 0.0 in 793.0 W/m2 CLR
12:13 31.3 °F 15.7 °F 1015.5 in ESE 31.5 mph 31.5 mph 39 % 0.0 in 805.0 W/m2 CLR
12:18 31.4 °F 15.8 °F 1015.5 in ESE 27.8 mph 27.8 mph 39 % 0.0 in 812.0 W/m2 CLR
12:23 31.6 °F 17.1 °F 1015.5 in ESE 16.7 mph 16.7 mph 42 % 0.0 in 810.0 W/m2 CLR
12:28 31.6 °F 17.1 °F 1015.5 in SE 24.1 mph 24.1 mph 42 % 0.0 in 824.0 W/m2 CLR
12:33 31.3 °F 17.3 °F 1015.5 in ESE 29.6 mph 29.6 mph 43 % 0.0 in 828.0 W/m2 CLR
12:38 31.5 °F 16.7 °F 1015.5 in ESE 19.3 mph 19.3 mph 41 % 0.0 in 842.0 W/m2 CLR
12:43 31.7 °F 16.4 °F 1015.5 in ESE 27.8 mph 27.8 mph 40 % 0.0 in 849.0 W/m2 CLR
12:44 31.7 °F 16.1 °F 1015.5 in ESE 27.8 mph 27.8 mph 39 % 0.0 in 854.0 W/m2 CLR
12:49 31.7 °F 16.8 °F 1015.5 in East 20.4 mph 20.4 mph 41 % 0.0 in 865.0 W/m2 CLR
12:54 31.8 °F 17.3 °F 1015.5 in SE 29.6 mph 29.6 mph 42 % 0.0 in 882.0 W/m2 CLR
12:59 31.4 °F 18.1 °F 1015.1 in SE 24.1 mph 24.1 mph 45 % 0.0 in 914.0 W/m2 CLR
13:04 31.5 °F 18.1 °F 1015.5 in SE 33.8 mph 33.8 mph 45 % 0.0 in 946.0 W/m2 CLR
13:09 31.6 °F 18.2 °F 1015.1 in ESE 22.2 mph 22.2 mph 45 % 0.0 in 983.0 W/m2 CLR
13:14 31.4 °F 18.1 °F 1015.5 in East 25.9 mph 25.9 mph 45 % 0.0 in 976.0 W/m2 CLR
13:19 31.3 °F 18.3 °F 1015.1 in ESE 29.6 mph 29.6 mph 46 % 0.0 in 986.0 W/m2 CLR
13:24 31.3 °F 18.3 °F 1015.5 in SE 31.5 mph 31.5 mph 46 % 0.0 in 940.0 W/m2 CLR
13:29 31.4 °F 17.7 °F 1015.1 in SSE 31.5 mph 31.5 mph 44 % 0.0 in 930.0 W/m2 CLR
13:34 31.7 °F 17.6 °F 1015.5 in SE 31.5 mph 31.5 mph 43 % 0.0 in 877.0 W/m2 CLR
13:39 31.7 °F 17.9 °F 1015.5 in SE 25.9 mph 25.9 mph 44 % 0.0 in 918.0 W/m2 CLR
13:44 31.5 °F 17.8 °F 1015.1 in ESE 33.3 mph 33.3 mph 44 % 0.0 in 904.0 W/m2 CLR
13:49 31.3 °F 17.6 °F 1015.1 in SSE 37.0 mph 37.0 mph 44 % 0.0 in 715.0 W/m2 CLR
13:54 31.2 °F 17.9 °F 1015.1 in ESE 24.1 mph 24.1 mph 45 % 0.0 in 793.0 W/m2 CLR
13:59 31.3 °F 17.6 °F 1015.1 in SE 29.6 mph 29.6 mph 44 % 0.0 in 926.0 W/m2 CLR
14:04 31.4 °F 18.1 °F 1014.8 in SSE 25.9 mph 25.9 mph 45 % 0.0 in 972.0 W/m2 CLR
14:09 31.7 °F 18.6 °F 1014.8 in SE 24.1 mph 24.1 mph 46 % 0.0 in 997.0 W/m2 CLR
14:14 31.6 °F 18.9 °F 1014.8 in SSE 27.8 mph 27.8 mph 47 % 0.0 in 1014.0 W/m2 CLR
14:19 31.5 °F 18.5 °F 1015.1 in SE 31.5 mph 31.5 mph 46 % 0.0 in 925.0 W/m2 CLR
14:24 31.4 °F 19.1 °F 1015.1 in ESE 29.0 mph 29.0 mph 48 % 0.0 in 840.0 W/m2 CLR
14:29 31.2 °F 18.8 °F 1014.8 in ESE 24.1 mph 24.1 mph 48 % 0.0 in 1037.0 W/m2 CLR
14:34 31.3 °F 18.7 °F 1014.8 in ESE 31.5 mph 31.5 mph 47 % 0.0 in 1035.0 W/m2 CLR
14:39 31.0 °F 18.7 °F 1014.8 in ESE 25.9 mph 25.9 mph 48 % 0.0 in 1011.0 W/m2 CLR
14:44 31.1 °F 19.1 °F 1014.8 in SE 29.6 mph 29.6 mph 49 % 0.0 in 940.0 W/m2 CLR
14:49 31.0 °F 18.7 °F 1014.8 in SE 27.8 mph 27.8 mph 48 % 0.0 in 928.0 W/m2 CLR
14:59 31.0 °F 18.7 °F 1014.4 in East 29.6 mph 29.6 mph 48 % 0.0 in 954.0 W/m2 CLR
15:04 31.0 °F 18.7 °F 1014.8 in ESE 27.8 mph 27.8 mph 48 % 0.0 in 812.0 W/m2 CLR
15:09 30.8 °F 18.8 °F 1014.4 in SE 27.8 mph 27.8 mph 49 % 0.0 in 916.0 W/m2 CLR
15:14 31.1 °F 18.8 °F 1014.4 in ESE 31.5 mph 31.5 mph 48 % 0.0 in 916.0 W/m2 CLR
15:19 30.9 °F 18.3 °F 1014.4 in ESE 29.6 mph 29.6 mph 47 % 0.0 in 912.0 W/m2 CLR
15:24 31.0 °F 18.4 °F 1014.1 in SE 35.2 mph 35.2 mph 47 % 0.0 in 886.0 W/m2 CLR
15:29 30.9 °F 18.3 °F 1014.4 in ESE 38.9 mph 38.9 mph 47 % 0.0 in 888.0 W/m2 CLR
15:34 30.9 °F 18.6 °F 1014.1 in ESE 30.6 mph 30.6 mph 48 % 0.0 in 879.0 W/m2 CLR
15:39 31.3 °F 18.6 °F 1014.4 in South 27.8 mph 27.8 mph 47 % 0.0 in 889.0 W/m2 CLR
15:44 31.3 °F 18.3 °F 1014.1 in ESE 31.5 mph 31.5 mph 46 % 0.0 in 316.0 W/m2 CLR
15:49 30.7 °F 18.4 °F 1014.1 in SE 29.6 mph 29.6 mph 48 % 0.0 in 388.0 W/m2 CLR
15:54 30.8 °F 18.5 °F 1014.1 in ESE 33.3 mph 33.3 mph 48 % 0.0 in 561.0 W/m2 CLR
15:59 30.7 °F 18.4 °F 1014.1 in ESE 29.0 mph 29.0 mph 48 % 0.0 in 411.0 W/m2 CLR
16:04 30.5 °F 18.2 °F 1014.4 in ESE 29.6 mph 29.6 mph 48 % 0.0 in 462.0 W/m2 CLR
16:09 30.4 °F 18.5 °F 1014.1 in SE 31.5 mph 31.5 mph 49 % 0.0 in 861.0 W/m2 CLR
16:14 30.8 °F 18.5 °F 1014.1 in East 22.2 mph 22.2 mph 48 % 0.0 in 826.0 W/m2 CLR
16:19 31.1 °F 18.4 °F 1014.1 in ESE 24.1 mph 24.1 mph 47 % 0.0 in 793.0 W/m2 CLR
16:24 30.9 °F 18.3 °F 1014.1 in ESE 29.6 mph 29.6 mph 47 % 0.0 in 772.0 W/m2 CLR
16:29 31.0 °F 18.4 °F 1014.1 in ESE 29.6 mph 29.6 mph 47 % 0.0 in 733.0 W/m2 CLR
16:34 31.1 °F 18.4 °F 1013.8 in SE 27.8 mph 27.8 mph 47 % 0.0 in 749.0 W/m2 CLR
16:39 30.8 °F 18.9 °F 1013.8 in East 31.5 mph 31.5 mph 49 % 0.0 in 740.0 W/m2 CLR
16:44 31.0 °F 18.7 °F 1013.4 in East 27.8 mph 27.8 mph 48 % 0.0 in 735.0 W/m2 CLR
16:49 31.2 °F 18.2 °F 1013.8 in SSE 30.6 mph 30.6 mph 46 % 0.0 in 728.0 W/m2 CLR
16:54 31.4 °F 18.4 °F 1013.8 in SE 25.7 mph 25.7 mph 46 % 0.0 in 729.0 W/m2 CLR
16:59 31.5 °F 18.1 °F 1013.8 in ESE 29.6 mph 29.6 mph 45 % 0.0 in 687.0 W/m2 CLR
17:04 31.3 °F 17.6 °F 1013.8 in ESE 35.2 mph 35.2 mph 44 % 0.0 in 691.0 W/m2 CLR
17:09 31.6 °F 17.4 °F 1013.4 in SSE 25.9 mph 25.9 mph 43 % 0.0 in 538.0 W/m2 CLR
17:14 31.6 °F 18.2 °F 1013.4 in SE 25.9 mph 25.9 mph 45 % 0.0 in 640.0 W/m2 CLR
17:19 31.6 °F 18.2 °F 1013.4 in SE 30.6 mph 30.6 mph 45 % 0.0 in 645.0 W/m2 CLR
17:24 31.5 °F 18.1 °F 1013.4 in East 24.1 mph 24.1 mph 45 % 0.0 in 638.0 W/m2 CLR
17:29 31.5 °F 17.8 °F 1013.4 in SE 31.5 mph 31.5 mph 44 % 0.0 in 645.0 W/m2 CLR
17:34 31.6 °F 18.6 °F 1013.1 in ESE 25.9 mph 25.9 mph 46 % 0.0 in 631.0 W/m2 CLR
17:39 31.6 °F 17.1 °F 1013.1 in SSE 29.6 mph 29.6 mph 42 % 0.0 in 626.0 W/m2 CLR
17:44 31.6 °F 17.5 °F 1013.1 in SE 25.9 mph 25.9 mph 43 % 0.0 in 483.0 W/m2 CLR
17:49 31.3 °F 17.2 °F 1013.1 in SE 25.9 mph 26.4 mph 43 % 0.0 in 311.0 W/m2 CLR
17:54 30.9 °F 16.9 °F 1013.1 in SE 22.2 mph 22.2 mph 43 % 0.0 in 343.0 W/m2 CLR
17:59 30.9 °F 16.8 °F 1013.1 in SE 27.8 mph 27.8 mph 43 % 0.0 in 294.0 W/m2 CLR
18:04 31.0 °F 17.3 °F 1013.1 in SE 20.9 mph 20.9 mph 44 % 0.0 in 271.0 W/m2 CLR
18:09 31.0 °F 17.3 °F 1013.1 in SE 16.1 mph 16.1 mph 44 % 0.0 in 272.0 W/m2 CLR
18:15 30.7 °F 17.1 °F 1013.1 in SE 31.5 mph 31.5 mph 44 % 0.0 in 232.0 W/m2 CLR
18:20 30.4 °F 17.1 °F 1013.1 in SSE 29.6 mph 29.6 mph 45 % 0.0 in 221.0 W/m2 CLR
18:25 30.3 °F 17.7 °F 1013.1 in ESE 22.2 mph 22.2 mph 47 % 0.0 in 220.0 W/m2 CLR
18:30 29.8 °F 17.9 °F 1012.8 in ESE 27.8 mph 27.8 mph 49 % 0.0 in 234.0 W/m2 CLR
18:35 29.7 °F 18.1 °F 1012.8 in SE 18.5 mph 18.5 mph 50 % 0.0 in 271.0 W/m2 CLR
18:40 29.5 °F 18.0 °F 1012.8 in SE 27.8 mph 27.8 mph 50 % 0.0 in 341.0 W/m2 CLR
18:45 29.3 °F 18.1 °F 1012.4 in SE 27.8 mph 27.8 mph 51 % 0.0 in 292.0 W/m2 CLR
18:50 29.2 °F 18.1 °F 1012.8 in ESE 16.7 mph 16.7 mph 51 % 0.0 in 250.0 W/m2 CLR
18:55 29.1 °F 17.9 °F 1012.8 in SE 27.8 mph 27.8 mph 51 % 0.0 in 179.0 W/m2 CLR
19:00 28.9 °F 18.1 °F 1012.8 in SE 22.2 mph 22.2 mph 52 % 0.0 in 132.0 W/m2 CLR
19:05 28.7 °F 17.9 °F 1013.1 in ESE 18.5 mph 18.5 mph 52 % 0.0 in 113.0 W/m2 CLR
19:10 28.6 °F 17.7 °F 1013.1 in SE 27.8 mph 27.8 mph 52 % 0.0 in 100.0 W/m2 CLR
19:15 28.4 °F 17.6 °F 1013.1 in SE 24.1 mph 24.1 mph 52 % 0.0 in 97.0 W/m2 CLR
19:20 28.3 °F 17.8 °F 1013.1 in SE 22.2 mph 22.2 mph 53 % 0.0 in 95.0 W/m2 CLR
19:25 28.2 °F 17.7 °F 1013.1 in SE 18.5 mph 18.5 mph 53 % 0.0 in 93.0 W/m2 CLR
19:30 28.1 °F 17.6 °F 1013.1 in SE 22.5 mph 22.5 mph 53 % 0.0 in 90.0 W/m2 CLR
19:35 28.0 °F 17.5 °F 1013.4 in SE 22.2 mph 22.2 mph 53 % 0.0 in 84.0 W/m2 CLR
19:40 27.9 °F 17.5 °F 1013.4 in SSE 14.5 mph 14.5 mph 53 % 0.0 in 76.0 W/m2 FEW
19:45 27.9 °F 17.5 °F 1013.4 in SE 9.7 mph 9.7 mph 53 % 0.0 in 63.0 W/m2 FEW
19:50 27.9 °F 17.4 °F 1013.8 in SE 6.4 mph 6.4 mph 53 % 0.0 in 54.0 W/m2 SCT
19:55 28.0 °F 17.2 °F 1013.8 in Calm     52 % 0.0 in 42.0 W/m2 SCT
20:00 28.0 °F 17.2 °F 1014.1 in ESE 7.4 mph 7.4 mph 52 % 0.0 in 32.0 W/m2 BKN
20:05 27.9 °F 17.2 °F 1014.1 in SE 8.0 mph 8.0 mph 52 % 0.0 in 21.0 W/m2 BKN
20:10 27.9 °F 17.1 °F 1014.4 in Calm     52 % 0.0 in 14.0 W/m2 BKN
20:15 27.9 °F 16.8 °F 1014.8 in Calm     51 % 0.0 in 11.0 W/m2 BKN
20:20 28.0 °F 16.6 °F 1014.8 in South 13.0 mph 13.0 mph 50 % 0.0 in 7.0 W/m2 BKN
20:25 28.0 °F 16.6 °F 1015.1 in Calm     50 % 0.0 in 0.0 W/m2 BKN
20:30 28.0 °F 16.9 °F 1015.1 in Calm     51 % 0.0 in 0.0 W/m2 OVC
20:35 27.9 °F 17.1 °F 1015.1 in SSE 3.2 mph   52 % 0.0 in 0.0 W/m2 OVC
20:40 27.7 °F 17.5 °F 1015.1 in Calm     54 % 0.0 in 5.0 W/m2 OVC
20:45 27.2 °F 18.4 °F 1014.8 in ENE 16.7 mph 16.7 mph 59 % 0.5 in 11.0 W/m2 RA
20:50 26.0 °F 19.2 °F 1013.8 in ENE 18.5 mph 18.5 mph 66 % 0.8 in 19.0 W/m2 RA
20:55 24.9 °F 19.1 °F 1013.4 in ESE 29.6 mph 29.6 mph 70 % 1.3 in 18.0 W/m2 RA
20:56 24.8 °F 18.7 °F 1013.4 in ESE 33.3 mph 33.3 mph 69 % 1.3 in 16.0 W/m2 BKN
21:01 24.8 °F 18.5 °F 1013.4 in SE 20.4 mph 20.4 mph 68 % 1.3 in 11.0 W/m2 BKN
21:06 25.0 °F 18.2 °F 1014.1 in SE 22.2 mph 22.2 mph 66 % 1.3 in 9.0 W/m2 BKN
21:11 25.2 °F 18.1 °F 1013.8 in SE 29.6 mph 29.6 mph 65 % 1.3 in 7.0 W/m2 BKN
21:16 25.3 °F 17.7 °F 1013.4 in SE 35.2 mph 35.2 mph 63 % 1.3 in 5.0 W/m2 OVC
21:21 25.5 °F 17.4 °F 1013.1 in SSE 31.5 mph 31.5 mph 61 % 1.3 in 5.0 W/m2 OVC
21:26 25.5 °F 17.7 °F 1013.4 in South 18.5 mph 18.5 mph 62 % 1.3 in 12.0 W/m2 BKN
21:31 25.6 °F 17.3 °F 1013.8 in SE 27.8 mph 27.8 mph 60 % 1.3 in 19.0 W/m2 OVC
21:36 25.6 °F 17.3 °F 1013.4 in SSE 27.8 mph 27.8 mph 60 % 1.3 in 11.0 W/m2 OVC
21:41 25.6 °F 17.6 °F 1013.4 in South 27.8 mph 27.8 mph 61 % 1.3 in 0.0 W/m2 CLR
21:46 25.7 °F 17.3 °F 1013.4 in SSE 30.6 mph 30.6 mph 60 % 0.5 in 0.0 W/m2 CLR
21:51 25.7 °F 17.1 °F 1013.8 in SSE 24.1 mph 24.1 mph 59 % 0.0 in 0.0 W/m2 CLR
21:56 25.7 °F 17.3 °F 1013.8 in SSE 20.4 mph 20.4 mph 60 % 0.0 in 0.0 W/m2 CLR
22:01 25.7 °F 17.1 °F 1013.8 in South 13.0 mph 13.0 mph 59 % 0.0 in 0.0 W/m2 CLR
22:06 25.7 °F 16.6 °F 1013.8 in SSE 14.8 mph 14.8 mph 57 % 0.0 in 0.0 W/m2 CLR
22:11 25.9 °F 16.7 °F 1013.8 in SE 16.7 mph 16.7 mph 57 % 0.0 in 0.0 W/m2 CLR
22:16 25.9 °F 15.9 °F 1014.1 in SSE 22.2 mph 22.2 mph 54 % 0.0 in 0.0 W/m2 CLR
22:21 26.1 °F 15.8 °F 1014.1 in SSE 16.7 mph 16.7 mph 53 % 0.0 in 0.0 W/m2 CLR
22:26 26.3 °F 15.1 °F 1014.1 in South 19.3 mph 19.3 mph 50 % 0.0 in 0.0 W/m2 CLR
22:31 26.5 °F 14.9 °F 1014.1 in SSE 20.4 mph 20.4 mph 49 % 0.0 in 0.0 W/m2 CLR
22:36 26.6 °F 14.9 °F 1014.1 in SSE 20.9 mph 20.9 mph 49 % 0.0 in 0.0 W/m2 CLR
22:41 26.5 °F 14.9 °F 1014.4 in South 18.5 mph 18.5 mph 49 % 0.0 in 0.0 W/m2 CLR
22:46 26.4 °F 14.8 °F 1014.4 in SSE 14.8 mph 14.8 mph 49 % 0.0 in 0.0 W/m2 CLR
22:47 26.3 °F 15.1 °F 1014.4 in SE 17.7 mph 17.7 mph 50 % 0.0 in 0.0 W/m2 CLR
22:52 26.4 °F 15.1 °F 1014.8 in SSW 18.5 mph 18.5 mph 50 % 0.0 in 0.0 W/m2 CLR
22:57 26.3 °F 15.1 °F 1014.8 in SSE 11.1 mph 11.1 mph 50 % 0.0 in 0.0 W/m2 CLR
23:02 26.3 °F 15.0 °F 1014.8 in SE 11.3 mph 11.3 mph 50 % 0.0 in 0.0 W/m2 CLR
23:07 26.1 °F 14.9 °F 1014.8 in SSE 9.7 mph 9.7 mph 50 % 0.0 in 0.0 W/m2 CLR
23:12 26.0 °F 15.1 °F 1014.8 in Calm     51 % 0.0 in 0.0 W/m2 CLR
23:17 25.8 °F 14.6 °F 1014.8 in Calm     50 % 0.0 in 0.0 W/m2 CLR
23:22 25.7 °F 15.1 °F 1015.1 in Calm     52 % 0.0 in 0.0 W/m2 CLR
23:27 25.6 °F 14.7 °F 1015.1 in SE 7.4 mph 7.4 mph 51 % 0.0 in 0.0 W/m2 CLR
23:32 25.5 °F 14.6 °F 1015.1 in Calm     51 % 0.0 in 0.0 W/m2 CLR
23:37 25.4 °F 15.2 °F 1015.1 in Calm     53 % 0.0 in 0.0 W/m2 CLR
23:42 25.1 °F 15.2 °F 1015.1 in Calm     54 % 0.0 in 0.0 W/m2 CLR
23:47 24.9 °F 14.7 °F 1015.1 in Calm     53 % 0.0 in 0.0 W/m2 CLR
23:52 24.9 °F 14.7 °F 1015.1 in Calm     53 % 0.0 in 0.0 W/m2 CLR
23:57 24.9 °F 14.7 °F 1015.1 in Calm     53 % 0.0 in 0.0 W/m2 CLR
Lo Temps de Massalio
Compliments of Weather Underground - 1.25 mb